30-07-2022, 00:00:06,    226,    0.0,   17.3,   0.00,   0.00, 1015.3,   58.1, -999.0
30-07-2022, 00:00:16,    225,    0.0,   17.4,   0.00,   0.00, 1015.3,   58.0, -999.0
30-07-2022, 00:00:27,    225,    0.0,   17.4,   0.00,   0.00, 1015.4,   58.1, -999.0
30-07-2022, 00:00:36,    226,    0.0,   17.4,   0.00,   0.00, 1015.4,   58.1, -999.0
30-07-2022, 00:00:46,    226,    0.0,   17.5,   0.00,   0.00, 1015.3,   58.0, -999.0
30-07-2022, 00:00:56,    226,    0.0,   17.5,   0.00,   0.00, 1015.3,   58.0, -999.0
30-07-2022, 00:01:06,    225,    0.0,   17.4,   0.00,   0.00, 1015.4,   58.1, -999.0
30-07-2022, 00:01:16,    226,    0.0,   17.4,   0.00,   0.00, 1015.3,   58.1, -999.0
30-07-2022, 00:01:26,    225,    0.0,   17.4,   0.00,   0.00, 1015.3,   58.3, -999.0
30-07-2022, 00:01:36,    225,    0.0,   17.5,   0.00,   0.00, 1015.3,   58.3, -999.0
30-07-2022, 00:01:46,    225,    0.0,   17.5,   0.00,   0.00, 1015.3,   58.2, -999.0
30-07-2022, 00:01:56,    226,    0.0,   17.4,   0.00,   0.00, 1015.3,   58.2, -999.0
30-07-2022, 00:02:06,    225,    0.0,   17.4,   0.00,   0.00, 1015.3,   58.2, -999.0
30-07-2022, 00:02:16,    226,    0.0,   17.5,   0.00,   0.00, 1015.3,   58.5, -999.0
30-07-2022, 00:02:26,    225,    0.0,   17.5,   0.00,   0.00, 1015.4,   58.4, -999.0
30-07-2022, 00:02:36,    225,    0.0,   17.4,   0.00,   0.00, 1015.3,   58.3, -999.0
30-07-2022, 00:02:45,    225,    0.0,   17.4,   0.00,   0.00, 1015.3,   58.4, -999.0
30-07-2022, 00:02:56,    226,    0.0,   17.5,   0.00,   0.00, 1015.3,   58.3, -999.0
30-07-2022, 00:03:05,    225,    0.0,   17.5,   0.00,   0.00, 1015.3,   58.3, -999.0
30-07-2022, 00:03:15,    225,    0.0,   17.5,   0.00,   0.00, 1015.3,   58.3, -999.0
30-07-2022, 00:03:26,    226,    0.0,   17.4,   0.00,   0.00, 1015.4,   58.5, -999.0
30-07-2022, 00:03:35,    225,    0.0,   17.4,   0.00,   0.00, 1015.3,   58.4, -999.0
30-07-2022, 00:03:45,    226,    0.0,   17.4,   0.00,   0.00, 1015.4,   58.5, -999.0
30-07-2022, 00:03:55,    226,    0.0,   17.5,   0.00,   0.00, 1015.4,   58.4, -999.0
30-07-2022, 00:04:05,    225,    0.0,   17.5,   0.00,   0.00, 1015.3,   58.3, -999.0
30-07-2022, 00:04:15,    225,    0.0,   17.5,   0.00,   0.00, 1015.3,   58.4, -999.0
30-07-2022, 00:04:25,    225,    0.0,   17.5,   0.00,   0.00, 1015.3,   58.5, -999.0
30-07-2022, 00:04:35,    226,    0.0,   17.4,   0.00,   0.00, 1015.3,   58.4, -999.0
30-07-2022, 00:04:45,    225,    0.0,   17.5,   0.00,   0.00, 1015.3,   58.4, -999.0
30-07-2022, 00:04:55,    226,    0.0,   17.5,   0.00,   0.00, 1015.3,   58.6, -999.0
30-07-2022, 00:05:05,    225,    0.0,   17.5,   0.00,   0.00, 1015.3,   58.5, -999.0
30-07-2022, 00:05:15,    225,    0.0,   17.4,   0.00,   0.00, 1015.3,   58.5, -999.0
30-07-2022, 00:05:25,    226,    0.0,   17.5,   0.00,   0.00, 1015.3,   58.6, -999.0
30-07-2022, 00:05:35,    226,    0.0,   17.5,   0.00,   0.00, 1015.3,   58.5, -999.0
30-07-2022, 00:05:44,    225,    0.0,   17.4,   0.00,   0.00, 1015.3,   58.6, -999.0
30-07-2022, 00:05:54,    226,    0.0,   17.3,   0.00,   0.00, 1015.3,   58.4, -999.0
30-07-2022, 00:06:05,    226,    0.0,   17.5,   0.00,   0.00, 1015.3,   58.4, -999.0
30-07-2022, 00:06:14,    225,    0.0,   17.4,   0.00,   0.00, 1015.3,   58.5, -999.0
30-07-2022, 00:06:24,    225,    0.0,   17.5,   0.00,   0.00, 1015.3,   58.6, -999.0
30-07-2022, 00:06:34,    256,    0.0,   17.4,   0.00,   0.00, 1015.3,   58.5, -999.0
30-07-2022, 00:06:44,    256,    0.0,   17.4,   0.00,   0.00, 1015.3,   58.7, -999.0
30-07-2022, 00:06:54,    255,    0.0,   17.4,   0.00,   0.00, 1015.3,   58.8, -999.0
30-07-2022, 00:07:04,    256,    0.0,   17.5,   0.00,   0.00, 1015.3,   58.7, -999.0
30-07-2022, 00:07:14,    245,    0.0,   17.4,   0.00,   0.00, 1015.3,   58.7, -999.0
30-07-2022, 00:07:24,    237,    0.0,   17.4,   0.00,   0.00, 1015.3,   58.9, -999.0
30-07-2022, 00:07:34,    243,    0.8,   17.4,   0.00,   0.00, 1015.4,   59.2, -999.0
30-07-2022, 00:07:44,    228,    1.9,   17.4,   0.00,   0.00, 1015.5,   59.3, -999.0
30-07-2022, 00:07:54,    233,    0.5,   17.5,   0.00,   0.00, 1015.4,   59.2, -999.0
30-07-2022, 00:08:04,    233,    0.0,   17.4,   0.00,   0.00, 1015.3,   59.0, -999.0
30-07-2022, 00:08:14,    233,    0.0,   17.4,   0.00,   0.00, 1015.3,   59.0, -999.0
30-07-2022, 00:08:24,    204,    0.2,   17.4,   0.00,   0.00, 1015.4,   59.1, -999.0
30-07-2022, 00:08:34,    203,    0.0,   17.4,   0.00,   0.00, 1015.3,   59.0, -999.0
30-07-2022, 00:08:43,    203,    0.0,   17.3,   0.00,   0.00, 1015.3,   59.0, -999.0
30-07-2022, 00:08:53,    244,    0.0,   17.3,   0.00,   0.00, 1015.3,   58.9, -999.0
30-07-2022, 00:09:04,    239,    0.0,   17.4,   0.00,   0.00, 1015.3,   59.1, -999.0
30-07-2022, 00:09:13,    239,    0.0,   17.3,   0.00,   0.00, 1015.3,   59.2, -999.0
30-07-2022, 00:09:23,    230,    0.0,   17.4,   0.00,   0.00, 1015.3,   59.1, -999.0
30-07-2022, 00:09:33,    224,    1.0,   17.5,   0.00,   0.00, 1015.4,   59.4, -999.0
30-07-2022, 00:09:43,    222,    0.9,   17.5,   0.00,   0.00, 1015.4,   59.6, -999.0
30-07-2022, 00:09:53,    222,    0.0,   17.4,   0.00,   0.00, 1015.3,   59.2, -999.0
30-07-2022, 00:10:03,    223,    0.0,   17.4,   0.00,   0.00, 1015.3,   59.4, -999.0
30-07-2022, 00:10:13,    219,    0.3,   17.4,   0.00,   0.00, 1015.3,   59.5, -999.0
30-07-2022, 00:10:23,    226,    1.7,   17.5,   0.00,   0.00, 1015.4,   59.6, -999.0
30-07-2022, 00:10:33,    229,    0.9,   17.5,   0.00,   0.00, 1015.4,   59.7, -999.0
30-07-2022, 00:10:43,    229,    0.3,   17.5,   0.00,   0.00, 1015.4,   59.6, -999.0
30-07-2022, 00:10:53,    230,    0.0,   17.4,   0.00,   0.00, 1015.3,   59.3, -999.0
30-07-2022, 00:11:03,    230,    0.0,   17.4,   0.00,   0.00, 1015.2,   59.2, -999.0
30-07-2022, 00:11:13,    230,    0.0,   17.4,   0.00,   0.00, 1015.3,   59.5, -999.0
30-07-2022, 00:11:24,    230,    0.0,   17.4,   0.00,   0.00, 1015.3,   59.3, -999.0
30-07-2022, 00:11:33,    230,    0.0,   17.6,   0.00,   0.00, 1015.3,   59.3, -999.0
30-07-2022, 00:11:43,    205,    0.0,   17.4,   0.00,   0.00, 1015.2,   59.3, -999.0
30-07-2022, 00:11:52,    200,    0.0,   17.4,   0.00,   0.00, 1015.3,   59.2, -999.0
30-07-2022, 00:12:02,    200,    0.0,   17.5,   0.00,   0.00, 1015.2,   59.2, -999.0
30-07-2022, 00:12:12,    200,    0.0,   17.4,   0.00,   0.00, 1015.2,   59.2, -999.0
30-07-2022, 00:12:22,    200,    0.0,   17.4,   0.00,   0.00, 1015.2,   59.0, -999.0
30-07-2022, 00:12:32,    200,    0.0,   17.4,   0.00,   0.00, 1015.2,   59.2, -999.0
30-07-2022, 00:12:42,    200,    0.0,   17.4,   0.00,   0.00, 1015.2,   59.2, -999.0
30-07-2022, 00:12:52,    200,    0.0,   17.4,   0.00,   0.00, 1015.2,   59.2, -999.0
30-07-2022, 00:13:02,    200,    0.0,   17.4,   0.00,   0.00, 1015.2,   59.1, -999.0
30-07-2022, 00:13:12,    200,    0.0,   17.4,   0.00,   0.00, 1015.3,   59.2, -999.0
30-07-2022, 00:13:22,    200,    0.0,   17.3,   0.00,   0.00, 1015.3,   59.3, -999.0
30-07-2022, 00:13:32,    212,    1.2,   17.5,   0.00,   0.00, 1015.4,   59.7, -999.0
30-07-2022, 00:13:42,    219,    0.9,   17.5,   0.00,   0.00, 1015.4,   59.7, -999.0
30-07-2022, 00:13:52,    214,    0.3,   17.4,   0.00,   0.00, 1015.3,   59.6, -999.0
30-07-2022, 00:14:02,    215,    0.0,   17.3,   0.00,   0.00, 1015.2,   59.4, -999.0
30-07-2022, 00:14:12,    216,    0.0,   17.3,   0.00,   0.00, 1015.3,   59.3, -999.0
30-07-2022, 00:14:21,    215,    0.0,   17.4,   0.00,   0.00, 1015.3,   59.5, -999.0
30-07-2022, 00:14:32,    214,    0.0,   17.4,   0.00,   0.00, 1015.3,   59.5, -999.0
30-07-2022, 00:14:42,    214,    0.0,   17.3,   0.00,   0.00, 1015.2,   59.4, -999.0
30-07-2022, 00:14:51,    214,    0.0,   17.4,   0.00,   0.00, 1015.2,   59.4, -999.0
30-07-2022, 00:15:01,    215,    0.0,   17.4,   0.00,   0.00, 1015.2,   59.5, -999.0
30-07-2022, 00:15:11,    214,    0.0,   17.4,   0.00,   0.00, 1015.2,   59.4, -999.0
30-07-2022, 00:15:21,    215,    0.0,   17.4,   0.00,   0.00, 1015.2,   59.4, -999.0
30-07-2022, 00:15:31,    214,    0.0,   17.4,   0.00,   0.00, 1015.2,   59.2, -999.0
30-07-2022, 00:15:41,    214,    0.0,   17.3,   0.00,   0.00, 1015.2,   59.3, -999.0
30-07-2022, 00:15:51,    214,    0.0,   17.4,   0.00,   0.00, 1015.2,   59.2, -999.0
30-07-2022, 00:16:01,    214,    0.0,   17.4,   0.00,   0.00, 1015.2,   59.4, -999.0
30-07-2022, 00:16:11,    216,    0.0,   17.4,   0.00,   0.00, 1015.2,   59.4, -999.0
30-07-2022, 00:16:21,    217,    0.0,   17.4,   0.00,   0.00, 1015.2,   59.3, -999.0
30-07-2022, 00:16:31,    235,    0.9,   17.4,   0.00,   0.00, 1015.3,   59.7, -999.0
30-07-2022, 00:16:41,    243,    2.0,   17.5,   0.00,   0.00, 1015.3,   59.8, -999.0
30-07-2022, 00:16:51,    245,    2.0,   17.4,   0.00,   0.00, 1015.3,   59.8, -999.0
30-07-2022, 00:17:01,    244,    0.7,   17.4,   0.00,   0.00, 1015.3,   59.8, -999.0
30-07-2022, 00:17:11,    210,    0.0,   17.3,   0.00,   0.00, 1015.2,   59.6, -999.0
30-07-2022, 00:17:20,    210,    0.0,   17.3,   0.00,   0.00, 1015.2,   59.5, -999.0
30-07-2022, 00:17:30,    210,    0.0,   17.3,   0.00,   0.00, 1015.2,   59.5, -999.0
30-07-2022, 00:17:41,    210,    0.0,   17.3,   0.00,   0.00, 1015.2,   59.6, -999.0
30-07-2022, 00:17:50,    210,    0.0,   17.3,   0.00,   0.00, 1015.2,   59.6, -999.0
30-07-2022, 00:18:00,    210,    0.0,   17.4,   0.00,   0.00, 1015.2,   59.7, -999.0
30-07-2022, 00:18:10,    209,    0.0,   17.4,   0.00,   0.00, 1015.2,   59.7, -999.0
30-07-2022, 00:18:20,    210,    0.0,   17.3,   0.00,   0.00, 1015.2,   59.6, -999.0
30-07-2022, 00:18:30,    210,    0.0,   17.2,   0.00,   0.00, 1015.2,   59.7, -999.0
30-07-2022, 00:18:40,    210,    0.0,   17.3,   0.00,   0.00, 1015.1,   59.6, -999.0
30-07-2022, 00:18:50,    209,    0.0,   17.4,   0.00,   0.00, 1015.2,   59.7, -999.0
30-07-2022, 00:19:00,    210,    0.1,   17.4,   0.00,   0.00, 1015.2,   59.9, -999.0
30-07-2022, 00:19:10,    209,    0.0,   17.3,   0.00,   0.00, 1015.2,   59.7, -999.0
30-07-2022, 00:19:20,    209,    0.0,   17.4,   0.00,   0.00, 1015.2,   59.6, -999.0
30-07-2022, 00:19:30,    209,    0.0,   17.3,   0.00,   0.00, 1015.2,   59.8, -999.0
30-07-2022, 00:19:40,    209,    0.0,   17.3,   0.00,   0.00, 1015.2,   59.7, -999.0
30-07-2022, 00:19:50,    211,    0.0,   17.3,   0.00,   0.00, 1015.2,   59.7, -999.0
30-07-2022, 00:19:59,    209,    0.0,   17.4,   0.00,   0.00, 1015.2,   59.9, -999.0
30-07-2022, 00:20:12,    210,    0.0,   17.4,   0.00,   0.00, 1015.2,   59.7, -999.0
30-07-2022, 00:20:20,    210,    0.0,   17.4,   0.00,   0.00, 1015.2,   59.6, -999.0
30-07-2022, 00:20:29,    209,    0.4,   17.5,   0.00,   0.00, 1015.3,   59.9, -999.0
30-07-2022, 00:20:40,    196,    1.1,   17.5,   0.00,   0.00, 1015.2,   60.0, -999.0
30-07-2022, 00:20:49,    196,    0.0,   17.4,   0.00,   0.00, 1015.2,   59.7, -999.0
30-07-2022, 00:20:59,    195,    0.0,   17.3,   0.00,   0.00, 1015.2,   59.6, -999.0
30-07-2022, 00:21:09,    196,    0.0,   17.3,   0.00,   0.00, 1015.2,   59.7, -999.0
30-07-2022, 00:21:19,    195,    0.0,   17.3,   0.00,   0.00, 1015.2,   59.8, -999.0
30-07-2022, 00:21:29,    196,    0.1,   17.4,   0.00,   0.00, 1015.2,   60.0, -999.0
30-07-2022, 00:21:39,    195,    0.5,   17.4,   0.00,   0.00, 1015.2,   60.1, -999.0
30-07-2022, 00:21:49,    195,    0.0,   17.3,   0.00,   0.00, 1015.2,   59.7, -999.0
30-07-2022, 00:21:59,    195,    0.0,   17.3,   0.00,   0.00, 1015.2,   59.8, -999.0
30-07-2022, 00:22:09,    196,    0.0,   17.3,   0.00,   0.00, 1015.1,   59.8, -999.0
30-07-2022, 00:22:19,    195,    0.0,   17.3,   0.00,   0.00, 1015.2,   59.7, -999.0
30-07-2022, 00:22:29,    195,    0.0,   17.3,   0.00,   0.00, 1015.2,   59.7, -999.0
30-07-2022, 00:22:39,    195,    0.2,   17.3,   0.00,   0.00, 1015.2,   59.8, -999.0
30-07-2022, 00:22:49,    205,    1.2,   17.4,   0.00,   0.00, 1015.3,   60.2, -999.0
30-07-2022, 00:22:58,    209,    0.3,   17.4,   0.00,   0.00, 1015.2,   60.1, -999.0
30-07-2022, 00:23:09,    205,    0.0,   17.3,   0.00,   0.00, 1015.2,   60.0, -999.0
30-07-2022, 00:23:19,    205,    0.1,   17.4,   0.00,   0.00, 1015.2,   60.0, -999.0
30-07-2022, 00:23:28,    205,    0.0,   17.3,   0.00,   0.00, 1015.2,   59.8, -999.0
30-07-2022, 00:23:38,    205,    0.0,   17.2,   0.00,   0.00, 1015.2,   59.9, -999.0
30-07-2022, 00:23:49,    205,    0.0,   17.2,   0.00,   0.00, 1015.1,   59.9, -999.0
30-07-2022, 00:23:58,    204,    0.0,   17.3,   0.00,   0.00, 1015.2,   59.9, -999.0
30-07-2022, 00:24:08,    205,    0.0,   17.3,   0.00,   0.00, 1015.2,   60.1, -999.0
30-07-2022, 00:24:18,    205,    0.0,   17.3,   0.00,   0.00, 1015.1,   59.9, -999.0
30-07-2022, 00:24:28,    205,    0.0,   17.4,   0.00,   0.00, 1015.2,   59.8, -999.0
30-07-2022, 00:24:38,    205,    0.0,   17.3,   0.00,   0.00, 1015.2,   59.8, -999.0
30-07-2022, 00:24:48,    205,    0.0,   17.3,   0.00,   0.00, 1015.1,   59.8, -999.0
30-07-2022, 00:24:58,    205,    0.0,   17.3,   0.00,   0.00, 1015.1,   59.9, -999.0
30-07-2022, 00:25:08,    205,    0.0,   17.3,   0.00,   0.00, 1015.1,   59.8, -999.0
30-07-2022, 00:25:18,    205,    0.0,   17.3,   0.00,   0.00, 1015.1,   59.8, -999.0
30-07-2022, 00:25:28,    203,    0.0,   17.3,   0.00,   0.00, 1015.1,   59.9, -999.0
30-07-2022, 00:25:38,    231,    0.1,   17.4,   0.00,   0.00, 1015.2,   60.1, -999.0
30-07-2022, 00:25:48,    231,    0.1,   17.4,   0.00,   0.00, 1015.2,   60.0, -999.0
30-07-2022, 00:25:58,    231,    0.0,   17.4,   0.00,   0.00, 1015.2,   59.9, -999.0
30-07-2022, 00:26:07,    231,    0.0,   17.4,   0.00,   0.00, 1015.2,   59.9, -999.0
30-07-2022, 00:26:18,    231,    0.0,   17.3,   0.00,   0.00, 1015.2,   59.8, -999.0
30-07-2022, 00:26:27,    231,    0.0,   17.2,   0.00,   0.00, 1015.2,   59.9, -999.0
30-07-2022, 00:26:37,    231,    0.0,   17.3,   0.00,   0.00, 1015.2,   59.8, -999.0
30-07-2022, 00:26:47,    231,    0.0,   17.3,   0.00,   0.00, 1015.2,   59.9, -999.0
30-07-2022, 00:26:57,    231,    0.0,   17.3,   0.00,   0.00, 1015.2,   59.9, -999.0
30-07-2022, 00:27:07,    231,    0.0,   17.3,   0.00,   0.00, 1015.2,   59.9, -999.0
30-07-2022, 00:27:17,    231,    0.0,   17.3,   0.00,   0.00, 1015.2,   59.9, -999.0
30-07-2022, 00:27:27,    231,    0.0,   17.2,   0.00,   0.00, 1015.2,   59.9, -999.0
30-07-2022, 00:27:37,    229,    0.0,   17.3,   0.00,   0.00, 1015.2,   60.0, -999.0
30-07-2022, 00:27:47,    229,    0.0,   17.2,   0.00,   0.00, 1015.2,   60.0, -999.0
30-07-2022, 00:27:57,    229,    0.0,   17.3,   0.00,   0.00, 1015.2,   60.0, -999.0
30-07-2022, 00:28:07,    230,    0.0,   17.3,   0.00,   0.00, 1015.2,   60.0, -999.0
30-07-2022, 00:28:17,    233,    1.2,   17.4,   0.00,   0.00, 1015.3,   60.4, -999.0
30-07-2022, 00:28:27,    230,    1.4,   17.4,   0.00,   0.00, 1015.3,   60.4, -999.0
30-07-2022, 00:28:36,    230,    0.8,   17.4,   0.00,   0.00, 1015.3,   60.4, -999.0
30-07-2022, 00:28:47,    228,    0.3,   17.3,   0.00,   0.00, 1015.3,   60.4, -999.0
30-07-2022, 00:28:57,    228,    0.0,   17.3,   0.00,   0.00, 1015.2,   60.3, -999.0
30-07-2022, 00:29:06,    228,    0.0,   17.3,   0.00,   0.00, 1015.2,   60.1, -999.0
30-07-2022, 00:29:16,    227,    0.0,   17.3,   0.00,   0.00, 1015.2,   60.1, -999.0
30-07-2022, 00:29:27,    228,    0.0,   17.3,   0.00,   0.00, 1015.2,   60.2, -999.0
30-07-2022, 00:29:36,    219,    0.0,   17.3,   0.00,   0.00, 1015.2,   60.1, -999.0
30-07-2022, 00:29:46,    231,    0.0,   17.3,   0.00,   0.00, 1015.2,   60.2, -999.0
30-07-2022, 00:29:56,    213,    0.0,   17.2,   0.00,   0.00, 1015.2,   60.2, -999.0
30-07-2022, 00:30:06,    213,    0.0,   17.2,   0.00,   0.00, 1015.2,   60.0, -999.0
30-07-2022, 00:30:16,    213,    0.0,   17.3,   0.00,   0.00, 1015.2,   59.9, -999.0
30-07-2022, 00:30:26,    213,    0.0,   17.3,   0.00,   0.00, 1015.2,   60.0, -999.0
30-07-2022, 00:30:36,    213,    0.0,   17.3,   0.00,   0.00, 1015.2,   59.9, -999.0
30-07-2022, 00:30:46,    213,    0.0,   17.3,   0.00,   0.00, 1015.2,   60.0, -999.0
30-07-2022, 00:30:56,    213,    0.0,   17.3,   0.00,   0.00, 1015.2,   60.0, -999.0
30-07-2022, 00:31:06,    213,    0.0,   17.4,   0.00,   0.00, 1015.2,   60.0, -999.0
30-07-2022, 00:31:16,    213,    0.0,   17.4,   0.00,   0.00, 1015.2,   59.9, -999.0
30-07-2022, 00:31:26,    213,    0.0,   17.3,   0.00,   0.00, 1015.2,   59.9, -999.0
30-07-2022, 00:31:36,    213,    0.0,   17.3,   0.00,   0.00, 1015.2,   59.9, -999.0
30-07-2022, 00:31:46,    214,    0.0,   17.4,   0.00,   0.00, 1015.2,   60.0, -999.0
30-07-2022, 00:31:56,    213,    0.0,   17.3,   0.00,   0.00, 1015.2,   60.0, -999.0
30-07-2022, 00:32:05,    213,    0.0,   17.3,   0.00,   0.00, 1015.2,   60.0, -999.0
30-07-2022, 00:32:15,    206,    0.2,   17.3,   0.00,   0.00, 1015.2,   60.2, -999.0
30-07-2022, 00:32:26,    206,    0.1,   17.3,   0.00,   0.00, 1015.2,   60.2, -999.0
30-07-2022, 00:32:35,    202,    2.0,   17.3,   0.00,   0.00, 1015.3,   60.5, -999.0
30-07-2022, 00:32:45,    211,    2.5,   17.4,   0.00,   0.00, 1015.3,   60.5, -999.0
30-07-2022, 00:32:55,    228,    1.3,   17.4,   0.00,   0.00, 1015.2,   60.6, -999.0
30-07-2022, 00:33:05,    214,    0.3,   17.3,   0.00,   0.00, 1015.2,   60.6, -999.0
30-07-2022, 00:33:15,    217,    0.0,   17.3,   0.00,   0.00, 1015.2,   60.4, -999.0
30-07-2022, 00:33:25,    217,    0.0,   17.2,   0.00,   0.00, 1015.2,   60.4, -999.0
30-07-2022, 00:33:35,    217,    0.0,   17.3,   0.00,   0.00, 1015.2,   60.3, -999.0
30-07-2022, 00:33:45,    212,    0.0,   17.3,   0.00,   0.00, 1015.2,   60.3, -999.0
30-07-2022, 00:33:55,    212,    0.0,   17.3,   0.00,   0.00, 1015.2,   60.3, -999.0
30-07-2022, 00:34:05,    212,    0.0,   17.3,   0.00,   0.00, 1015.2,   60.4, -999.0
30-07-2022, 00:34:15,    212,    0.0,   17.3,   0.00,   0.00, 1015.2,   60.4, -999.0
30-07-2022, 00:34:25,    212,    0.0,   17.3,   0.00,   0.00, 1015.2,   60.3, -999.0
30-07-2022, 00:34:35,    212,    0.0,   17.1,   0.00,   0.00, 1015.2,   60.4, -999.0
30-07-2022, 00:34:44,    212,    0.0,   17.2,   0.00,   0.00, 1015.2,   60.3, -999.0
30-07-2022, 00:34:55,    212,    0.0,   17.3,   0.00,   0.00, 1015.2,   60.3, -999.0
30-07-2022, 00:35:05,    212,    0.0,   17.2,   0.00,   0.00, 1015.2,   60.4, -999.0
30-07-2022, 00:35:14,    222,    0.0,   17.3,   0.00,   0.00, 1015.2,   60.4, -999.0
30-07-2022, 00:35:24,    218,    0.0,   17.2,   0.00,   0.00, 1015.2,   60.4, -999.0
30-07-2022, 00:35:34,    218,    0.0,   17.2,   0.00,   0.00, 1015.2,   60.5, -999.0
30-07-2022, 00:35:44,    218,    0.0,   17.3,   0.00,   0.00, 1015.2,   60.4, -999.0
30-07-2022, 00:35:54,    217,    0.0,   17.2,   0.00,   0.00, 1015.2,   60.4, -999.0
30-07-2022, 00:36:04,    219,    0.0,   17.2,   0.00,   0.00, 1015.2,   60.5, -999.0
30-07-2022, 00:36:14,    219,    0.0,   17.3,   0.00,   0.00, 1015.2,   60.5, -999.0
30-07-2022, 00:36:24,    220,    0.0,   17.2,   0.00,   0.00, 1015.2,   60.5, -999.0
30-07-2022, 00:36:34,    222,    0.0,   17.2,   0.00,   0.00, 1015.2,   60.4, -999.0
30-07-2022, 00:36:44,    223,    0.0,   17.2,   0.00,   0.00, 1015.2,   60.5, -999.0
30-07-2022, 00:36:54,    288,    0.7,   17.3,   0.00,   0.00, 1015.2,   60.6, -999.0
30-07-2022, 00:37:04,    288,    0.1,   17.2,   0.00,   0.00, 1015.2,   60.5, -999.0
30-07-2022, 00:37:14,    288,    0.0,   17.2,   0.00,   0.00, 1015.2,   60.5, -999.0
30-07-2022, 00:37:24,    225,    0.3,   17.3,   0.00,   0.00, 1015.3,   60.8, -999.0
30-07-2022, 00:37:34,    225,    0.1,   17.3,   0.00,   0.00, 1015.2,   60.8, -999.0
30-07-2022, 00:37:44,    227,    1.1,   17.3,   0.00,   0.00, 1015.3,   60.8, -999.0
30-07-2022, 00:37:53,    236,    1.7,   17.3,   0.00,   0.00, 1015.3,   61.0, -999.0
30-07-2022, 00:38:04,    236,    1.4,   17.3,   0.00,   0.00, 1015.3,   61.0, -999.0
30-07-2022, 00:38:13,    230,    0.0,   17.2,   0.00,   0.00, 1015.2,   60.7, -999.0
30-07-2022, 00:38:23,    230,    0.0,   17.2,   0.00,   0.00, 1015.2,   60.7, -999.0
30-07-2022, 00:38:33,    193,    0.0,   17.2,   0.00,   0.00, 1015.2,   60.6, -999.0
30-07-2022, 00:38:43,    185,    0.4,   17.3,   0.00,   0.00, 1015.2,   60.8, -999.0
30-07-2022, 00:38:53,    189,    0.0,   17.2,   0.00,   0.00, 1015.2,   60.6, -999.0
30-07-2022, 00:39:03,    189,    0.0,   17.2,   0.00,   0.00, 1015.2,   60.6, -999.0
30-07-2022, 00:39:13,    189,    0.0,   17.2,   0.00,   0.00, 1015.2,   60.6, -999.0
30-07-2022, 00:39:23,    190,    0.0,   17.2,   0.00,   0.00, 1015.2,   60.7, -999.0
30-07-2022, 00:39:33,    189,    0.0,   17.2,   0.00,   0.00, 1015.2,   60.7, -999.0
30-07-2022, 00:39:43,    194,    0.0,   17.2,   0.00,   0.00, 1015.1,   60.7, -999.0
30-07-2022, 00:39:53,    196,    0.0,   17.2,   0.00,   0.00, 1015.1,   60.7, -999.0
30-07-2022, 00:40:03,    196,    0.0,   17.1,   0.00,   0.00, 1015.2,   60.7, -999.0
30-07-2022, 00:40:13,    196,    0.0,   17.2,   0.00,   0.00, 1015.1,   60.6, -999.0
30-07-2022, 00:40:22,    253,    0.0,   17.1,   0.00,   0.00, 1015.2,   60.8, -999.0
30-07-2022, 00:40:33,    181,    0.4,   17.2,   0.00,   0.00, 1015.2,   61.0, -999.0
30-07-2022, 00:40:43,    179,    0.5,   17.3,   0.00,   0.00, 1015.3,   61.1, -999.0
30-07-2022, 00:40:52,    179,    0.0,   17.3,   0.00,   0.00, 1015.1,   60.8, -999.0
30-07-2022, 00:41:02,    200,    0.0,   17.3,   0.00,   0.00, 1015.1,   60.8, -999.0
30-07-2022, 00:41:13,    201,    0.0,   17.3,   0.00,   0.00, 1015.1,   60.6, -999.0
30-07-2022, 00:41:22,    220,    0.0,   17.3,   0.00,   0.00, 1015.1,   60.7, -999.0
30-07-2022, 00:41:32,    243,    0.0,   17.2,   0.00,   0.00, 1015.2,   60.6, -999.0
30-07-2022, 00:41:42,    242,    0.0,   17.2,   0.00,   0.00, 1015.1,   60.6, -999.0
30-07-2022, 00:41:52,    253,    0.3,   17.3,   0.00,   0.00, 1015.2,   61.0, -999.0
30-07-2022, 00:42:02,    249,    0.0,   17.2,   0.00,   0.00, 1015.1,   60.8, -999.0
30-07-2022, 00:42:12,    216,    0.0,   17.2,   0.00,   0.00, 1015.1,   60.7, -999.0
30-07-2022, 00:42:22,    216,    0.0,   17.1,   0.00,   0.00, 1015.1,   60.8, -999.0
30-07-2022, 00:42:32,    216,    0.0,   17.2,   0.00,   0.00, 1015.2,   60.8, -999.0
30-07-2022, 00:42:42,    216,    0.0,   17.1,   0.00,   0.00, 1015.1,   60.7, -999.0
30-07-2022, 00:42:52,    220,    0.3,   17.2,   0.00,   0.00, 1015.2,   60.9, -999.0
30-07-2022, 00:43:02,    222,    1.9,   17.3,   0.00,   0.00, 1015.3,   61.3, -999.0
30-07-2022, 00:43:12,    224,    2.5,   17.2,   0.00,   0.00, 1015.3,   61.2, -999.0
30-07-2022, 00:43:22,    239,    1.6,   17.2,   0.00,   0.00, 1015.3,   61.2, -999.0
30-07-2022, 00:43:31,    285,    1.1,   17.3,   0.00,   0.00, 1015.3,   61.2, -999.0
30-07-2022, 00:43:42,    284,    1.0,   17.3,   0.00,   0.00, 1015.3,   61.3, -999.0
30-07-2022, 00:43:51,    284,    0.4,   17.2,   0.00,   0.00, 1015.2,   61.1, -999.0
30-07-2022, 00:44:01,    223,    0.3,   17.1,   0.00,   0.00, 1015.2,   60.9, -999.0
30-07-2022, 00:44:12,    296,    0.8,   17.3,   0.00,   0.00, 1015.2,   61.3, -999.0
30-07-2022, 00:44:21,    272,    0.6,   17.2,   0.00,   0.00, 1015.3,   61.3, -999.0
30-07-2022, 00:44:31,    271,    0.4,   17.1,   0.00,   0.00, 1015.2,   61.2, -999.0
30-07-2022, 00:44:41,    267,    0.0,   17.1,   0.00,   0.00, 1015.2,   61.0, -999.0
30-07-2022, 00:44:51,    251,    0.0,   17.2,   0.00,   0.00, 1015.2,   61.1, -999.0
30-07-2022, 00:45:01,    286,    0.5,   17.1,   0.00,   0.00, 1015.2,   61.1, -999.0
30-07-2022, 00:45:11,    273,    1.6,   17.3,   0.00,   0.00, 1015.2,   61.3, -999.0
30-07-2022, 00:45:21,    266,    0.7,   17.1,   0.00,   0.00, 1015.2,   61.2, -999.0
30-07-2022, 00:45:31,    272,    1.3,   17.2,   0.00,   0.00, 1015.3,   61.4, -999.0
30-07-2022, 00:45:41,    272,    0.1,   17.1,   0.00,   0.00, 1015.2,   61.1, -999.0
30-07-2022, 00:45:51,    272,    0.0,   17.1,   0.00,   0.00, 1015.2,   61.1, -999.0
30-07-2022, 00:46:00,    272,    0.0,   17.1,   0.00,   0.00, 1015.1,   61.1, -999.0
30-07-2022, 00:46:11,    266,    0.0,   17.0,   0.00,   0.00, 1015.1,   61.2, -999.0
30-07-2022, 00:46:21,    246,    1.3,   17.1,   0.00,   0.00, 1015.2,   61.5, -999.0
30-07-2022, 00:46:30,    201,    0.6,   17.2,   0.00,   0.00, 1015.2,   61.5, -999.0
30-07-2022, 00:46:41,    201,    1.4,   17.2,   0.00,   0.00, 1015.3,   61.6, -999.0